Location: Kernascl�den
(48.0062°N, 3.3198°W)
Time: 22:38:40
(UTC+00:00)

H-2A R/B - Pass Details

Date: 21 January 2021
Orbit: 734 x 836 km, 98.2° (Epoch: 03 March)

Event Time Altitude Azimuth Distance (km) Brightness Sun altitude
Rises 17:40:36 0° 126° (SE) 3,185 4.9 -7.5°
Reaches altitude 10° 17:43:14 10° 113° (ESE) 2,278 4.0 -7.9°
Maximum altitude 17:47:11 24° 61° (ENE) 1,552 3.0 -8.5°
Drops below altitude 10° 17:51:14 10° 9° (N) 2,339 4.2 -9.2°
Sets 17:53:57 0° 356° (N) 3,290 5.1 -9.6°
